Helliar — 2EPP5 — position and weather

sailwx.info

Track history (hours):
 
Tides and Currents Weather Stations Pressure Air Temp Water Temp Dewpoint Dewpoint Depression Visibility Wind Speed Wind Dir Waves Ship Positions

Helliar

Last reported at 2014-Nov-26 02:32 UTC. Time now 2014-Nov-26 02:59 UTC.
Position N 57°09' W 002°05'.

Length 122 m; draft 5.4 m.

Type: Cargo ship. MMSI: 235087119.

Date/timePositionNaut miles runAvg speedWind from/ knotsBaromVisibWave heightAir tempDewpointWater temp
2014-Nov-26 02:32N 57°09' W 002°05'0 0.0
2014-Nov-26 01:32N 57°09' W 002°05'0 0.0
2014-Nov-26 00:32N 57°09' W 002°05'0 0.0
2014-Nov-25 23:32N 57°09' W 002°05'0 0.0
2014-Nov-25 22:29N 57°09' W 002°05'0 0.0
2014-Nov-25 20:23N 57°09' W 002°05'0 0.0
2014-Nov-25 18:32N 57°09' W 002°05'0 0.0
2014-Nov-25 17:32N 57°09' W 002°05'0 0.0
2014-Nov-25 16:32N 57°09' W 002°05'0 0.0
2014-Nov-25 15:32N 57°09' W 002°05'0 0.0
2014-Nov-25 14:32N 57°09' W 002°05'0 0.0
2014-Nov-25 13:32N 57°09' W 002°05'0 0.0
2014-Nov-25 12:32N 57°09' W 002°05'0 0.0
2014-Nov-25 11:32N 57°09' W 002°05'0 0.0
2014-Nov-25 10:29N 57°09' W 002°05'0 0.0
2014-Nov-25 09:32N 57°09' W 002°05'0 0.0
2014-Nov-25 08:32N 57°09' W 002°05'0 0.0
2014-Nov-25 07:32N 57°09' W 002°05'0 0.0
2014-Nov-25 06:32N 57°09' W 002°05'0 0.4
2014-Nov-25 05:33N 57°09' W 002°05'1211.7
2014-Nov-25 04:33N 57°17' W 001°50'1312.7
2014-Nov-25 03:33N 57°28' W 001°38'1313.0
2014-Nov-25 02:33N 57°41' W 001°43'1413.5
2014-Nov-25 01:33N 57°53' W 001°53'6214.2
2014-Nov-24 21:09N 58°52' W 002°34'915.6
2014-Nov-24 20:33N 58°60' W 002°44'7 7.2
2014-Nov-24 19:33N 58°60' W 002°58'0 0.0
2014-Nov-24 18:33N 58°60' W 002°58'0 0.0
2014-Nov-24 17:33N 58°60' W 002°58'0 0.0
2014-Nov-24 16:33N 58°60' W 002°58'0 0.0
2014-Nov-24 15:32N 58°60' W 002°58'0 0.0
2014-Nov-24 14:32N 58°60' W 002°58'0 0.0
2014-Nov-24 13:32N 58°60' W 002°58'0 0.0
2014-Nov-24 12:32N 58°60' W 002°58'0 0.0
2014-Nov-24 11:32N 58°60' W 002°58'0 0.0
2014-Nov-24 10:32N 58°60' W 002°58'0 0.0
2014-Nov-24 09:32N 58°60' W 002°58'0 0.0
2014-Nov-24 08:32N 58°60' W 002°58'0 0.0
2014-Nov-24 07:32N 58°60' W 002°58'0 0.0
2014-Nov-24 06:32N 58°60' W 002°58'2 2.2
2014-Nov-24 05:33N 59°01' W 002°55'1111.0
2014-Nov-24 04:33N 58°55' W 002°38'1211.7
2014-Nov-24 03:33N 58°43' W 002°44'1212.0
2014-Nov-24 02:33N 58°33' W 002°55'5110.1
2014-Nov-23 21:30N 57°49' W 002°04'1111.1
2014-Nov-23 20:33N 57°47' W 001°45'1110.9
2014-Nov-23 19:33N 57°41' W 001°28'1313.3
2014-Nov-23 18:33N 57°29' W 001°38'2512.3
2014-Nov-23 16:31N 57°09' W 002°05'0 0.0
2014-Nov-23 15:31N 57°09' W 002°05'0 0.0
2014-Nov-23 14:31N 57°09' W 002°05'0 0.0
2014-Nov-23 13:31N 57°09' W 002°05'0 0.0
2014-Nov-23 12:31N 57°09' W 002°05'0 0.0
2014-Nov-23 11:31N 57°09' W 002°05'0 0.0
2014-Nov-23 10:31N 57°09' W 002°05'2110.1
2014-Nov-23 08:24N 57°26' W 001°42'1213.8
2014-Nov-23 07:33N 57°38' W 001°39'1413.8
2014-Nov-23 06:32N 57°51' W 001°34'46 1.2
2014-Nov-21 16:16N 57°08' W 002°04'0 0.5
2014-Nov-21 15:30N 57°09' W 002°05'0 0.0
2014-Nov-21 14:33N 57°09' W 002°05'0 0.0
2014-Nov-21 13:33N 57°09' W 002°05'0 0.0
2014-Nov-21 12:33N 57°09' W 002°05'0 0.0
2014-Nov-21 11:27N 57°09' W 002°05'0 0.0
2014-Nov-21 10:33N 57°09' W 002°05'0 0.0
2014-Nov-21 09:33N 57°09' W 002°05'0 0.0
2014-Nov-21 08:33N 57°09' W 002°05'0 0.1
2014-Nov-21 07:34N 57°09' W 002°05'1110.3
2014-Nov-21 06:29N 57°17' W 001°52'1212.5
2014-Nov-21 05:33N 57°27' W 001°40'1212.1
2014-Nov-21 04:33N 57°39' W 001°38'1212.4
2014-Nov-21 03:33N 57°51' W 001°36'78 3.3
2014-Nov-20 04:08N 59°05' W 002°27'813.9
2014-Nov-20 03:33N 59°00' W 002°41'9 9.2
2014-Nov-20 02:33N 58°60' W 002°58'5 4.8
2014-Nov-20 01:34N 59°00' W 002°49'7814.8
2014-Nov-19 20:17N 57°49' W 001°50'1014.3
2014-Nov-19 19:34N 57°39' W 001°44'1414.3
2014-Nov-19 18:34N 57°25' W 001°44'1914.3
2014-Nov-19 17:12N 57°09' W 002°05'0 0.6
2014-Nov-19 16:33N 57°09' W 002°05'0 0.0
2014-Nov-19 15:33N 57°09' W 002°05'0 0.0
2014-Nov-19 14:33N 57°09' W 002°05'0 0.0
2014-Nov-19 13:33N 57°09' W 002°05'0 0.0
2014-Nov-19 12:33N 57°09' W 002°05'0 0.0
2014-Nov-19 11:33N 57°09' W 002°05'0 0.0
2014-Nov-19 10:33N 57°09' W 002°05'0 0.0
2014-Nov-19 09:30N 57°09' W 002°05'0 0.0
2014-Nov-19 08:33N 57°09' W 002°05'0 0.0
2014-Nov-19 07:33N 57°09' W 002°05'0 0.0
2014-Nov-19 06:33N 57°09' W 002°05'0 0.0
2014-Nov-19 05:33N 57°09' W 002°05'0 0.0
2014-Nov-19 04:33N 57°09' W 002°05'0 0.0
2014-Nov-19 03:33N 57°09' W 002°05'0 0.0
2014-Nov-19 02:33N 57°09' W 002°05'0 0.0
2014-Nov-19 01:33N 57°09' W 002°05'0 0.0
2014-Nov-19 00:33N 57°09' W 002°05'0 0.0
2014-Nov-18 23:33N 57°09' W 002°05'0 0.0
2014-Nov-18 22:33N 57°09' W 002°05'0 0.0
2014-Nov-18 21:33N 57°09' W 002°05'0 0.0
2014-Nov-18 20:33N 57°09' W 002°05'0 0.0
2014-Nov-18 19:33N 57°09' W 002°05'0 0.0
2014-Nov-18 18:33N 57°09' W 002°05'0 0.0
2014-Nov-18 17:33N 57°09' W 002°05'0 0.0
2014-Nov-18 16:33N 57°09' W 002°05'0 0.0
2014-Nov-18 15:30N 57°09' W 002°05'0 0.0
2014-Nov-18 14:33N 57°09' W 002°05'0 0.0
2014-Nov-18 13:33N 57°09' W 002°05'0 0.0
2014-Nov-18 12:33N 57°09' W 002°05'0 0.0
2014-Nov-18 11:33N 57°09' W 002°05'0 0.0
2014-Nov-18 10:33N 57°09' W 002°05'0 0.0
2014-Nov-18 09:33N 57°09' W 002°05'0 0.0
2014-Nov-18 08:33N 57°09' W 002°05'10 8.5
2014-Nov-18 07:25N 57°14' W 001°50'1113.3
2014-Nov-18 06:33N 57°21' W 001°34'1312.9
2014-Nov-18 05:33N 57°29' W 001°15'1110.6
2014-Nov-18 04:33N 57°39' W 001°18'1312.7
2014-Nov-18 03:33N 57°50' W 001°30'6512.0
2014-Nov-17 22:06N 58°47' W 002°30'811.6
2014-Nov-17 21:26N 58°55' W 002°37'910.8
2014-Nov-17 20:33N 59°01' W 002°51'4 4.0
2014-Nov-17 19:31N 58°60' W 002°58'0 0.0
2014-Nov-17 18:31N 58°60' W 002°58'0 0.0
2014-Nov-17 17:31N 58°60' W 002°58'0 0.0
2014-Nov-17 16:31N 58°60' W 002°58'0 0.0
2014-Nov-17 14:31N 58°60' W 002°58'0 0.0
2014-Nov-17 13:31N 58°60' W 002°58'0 0.0
2014-Nov-17 12:31N 58°60' W 002°58'0 0.0
2014-Nov-17 11:31N 58°60' W 002°58'0 0.0
2014-Nov-17 10:31N 58°60' W 002°58'0 0.0
2014-Nov-17 09:31N 58°60' W 002°58'0 0.0
2014-Nov-17 08:31N 58°60' W 002°58'2 2.0
2014-Nov-17 07:33N 59°01' W 002°56'1010.2
2014-Nov-17 06:33N 59°09' W 002°43'  
Track history (hours):
 
Tides and Currents Weather Stations Pressure Air Temp Water Temp Dewpoint Dewpoint Depression Visibility Wind Speed Wind Dir Waves Ship Positions

Helliar

Last reported at 2014-Nov-26 02:32 UTC. Time now 2014-Nov-26 02:59 UTC.
Position N 57°09' W 002°05'.

Length 122 m; draft 5.4 m.

Type: Cargo ship. MMSI: 235087119.

Date/timePositionNaut miles runAvg speedWind from/ knotsBaromVisibWave heightAir tempDewpointWater temp
2014-Nov-26 02:32N 57°09' W 002°05'0 0.0
2014-Nov-26 01:32N 57°09' W 002°05'0 0.0
2014-Nov-26 00:32N 57°09' W 002°05'0 0.0
2014-Nov-25 23:32N 57°09' W 002°05'0 0.0
2014-Nov-25 22:29N 57°09' W 002°05'0 0.0
2014-Nov-25 20:23N 57°09' W 002°05'0 0.0
2014-Nov-25 18:32N 57°09' W 002°05'0 0.0
2014-Nov-25 17:32N 57°09' W 002°05'0 0.0
2014-Nov-25 16:32N 57°09' W 002°05'0 0.0
2014-Nov-25 15:32N 57°09' W 002°05'0 0.0
2014-Nov-25 14:32N 57°09' W 002°05'0 0.0
2014-Nov-25 13:32N 57°09' W 002°05'0 0.0
2014-Nov-25 12:32N 57°09' W 002°05'0 0.0
2014-Nov-25 11:32N 57°09' W 002°05'0 0.0
2014-Nov-25 10:29N 57°09' W 002°05'0 0.0
2014-Nov-25 09:32N 57°09' W 002°05'0 0.0
2014-Nov-25 08:32N 57°09' W 002°05'0 0.0
2014-Nov-25 07:32N 57°09' W 002°05'0 0.0
2014-Nov-25 06:32N 57°09' W 002°05'0 0.4
2014-Nov-25 05:33N 57°09' W 002°05'1211.7
2014-Nov-25 04:33N 57°17' W 001°50'1312.7
2014-Nov-25 03:33N 57°28' W 001°38'1313.0
2014-Nov-25 02:33N 57°41' W 001°43'1413.5
2014-Nov-25 01:33N 57°53' W 001°53'6214.2
2014-Nov-24 21:09N 58°52' W 002°34'915.6
2014-Nov-24 20:33N 58°60' W 002°44'7 7.2
2014-Nov-24 19:33N 58°60' W 002°58'0 0.0
2014-Nov-24 18:33N 58°60' W 002°58'0 0.0
2014-Nov-24 17:33N 58°60' W 002°58'0 0.0
2014-Nov-24 16:33N 58°60' W 002°58'0 0.0
2014-Nov-24 15:32N 58°60' W 002°58'0 0.0
2014-Nov-24 14:32N 58°60' W 002°58'0 0.0
2014-Nov-24 13:32N 58°60' W 002°58'0 0.0
2014-Nov-24 12:32N 58°60' W 002°58'0 0.0
2014-Nov-24 11:32N 58°60' W 002°58'0 0.0
2014-Nov-24 10:32N 58°60' W 002°58'0 0.0
2014-Nov-24 09:32N 58°60' W 002°58'0 0.0
2014-Nov-24 08:32N 58°60' W 002°58'0 0.0
2014-Nov-24 07:32N 58°60' W 002°58'0 0.0
2014-Nov-24 06:32N 58°60' W 002°58'2 2.2
2014-Nov-24 05:33N 59°01' W 002°55'1111.0
2014-Nov-24 04:33N 58°55' W 002°38'1211.7
2014-Nov-24 03:33N 58°43' W 002°44'1212.0
2014-Nov-24 02:33N 58°33' W 002°55'5110.1
2014-Nov-23 21:30N 57°49' W 002°04'1111.1
2014-Nov-23 20:33N 57°47' W 001°45'1110.9
2014-Nov-23 19:33N 57°41' W 001°28'1313.3
2014-Nov-23 18:33N 57°29' W 001°38'2512.3
2014-Nov-23 16:31N 57°09' W 002°05'0 0.0
2014-Nov-23 15:31N 57°09' W 002°05'0 0.0
2014-Nov-23 14:31N 57°09' W 002°05'0 0.0
2014-Nov-23 13:31N 57°09' W 002°05'0 0.0
2014-Nov-23 12:31N 57°09' W 002°05'0 0.0
2014-Nov-23 11:31N 57°09' W 002°05'0 0.0
2014-Nov-23 10:31N 57°09' W 002°05'2110.1
2014-Nov-23 08:24N 57°26' W 001°42'1213.8
2014-Nov-23 07:33N 57°38' W 001°39'1413.8
2014-Nov-23 06:32N 57°51' W 001°34'46 1.2
2014-Nov-21 16:16N 57°08' W 002°04'0 0.5
2014-Nov-21 15:30N 57°09' W 002°05'0 0.0
2014-Nov-21 14:33N 57°09' W 002°05'0 0.0
2014-Nov-21 13:33N 57°09' W 002°05'0 0.0
2014-Nov-21 12:33N 57°09' W 002°05'0 0.0
2014-Nov-21 11:27N 57°09' W 002°05'0 0.0
2014-Nov-21 10:33N 57°09' W 002°05'0 0.0
2014-Nov-21 09:33N 57°09' W 002°05'0 0.0
2014-Nov-21 08:33N 57°09' W 002°05'0 0.1
2014-Nov-21 07:34N 57°09' W 002°05'1110.3
2014-Nov-21 06:29N 57°17' W 001°52'1212.5
2014-Nov-21 05:33N 57°27' W 001°40'1212.1
2014-Nov-21 04:33N 57°39' W 001°38'1212.4
2014-Nov-21 03:33N 57°51' W 001°36'78 3.3
2014-Nov-20 04:08N 59°05' W 002°27'813.9
2014-Nov-20 03:33N 59°00' W 002°41'9 9.2
2014-Nov-20 02:33N 58°60' W 002°58'5 4.8
2014-Nov-20 01:34N 59°00' W 002°49'7814.8
2014-Nov-19 20:17N 57°49' W 001°50'1014.3
2014-Nov-19 19:34N 57°39' W 001°44'1414.3
2014-Nov-19 18:34N 57°25' W 001°44'1914.3
2014-Nov-19 17:12N 57°09' W 002°05'0 0.6
2014-Nov-19 16:33N 57°09' W 002°05'0 0.0
2014-Nov-19 15:33N 57°09' W 002°05'0 0.0
2014-Nov-19 14:33N 57°09' W 002°05'0 0.0
2014-Nov-19 13:33N 57°09' W 002°05'0 0.0
2014-Nov-19 12:33N 57°09' W 002°05'0 0.0
2014-Nov-19 11:33N 57°09' W 002°05'0 0.0
2014-Nov-19 10:33N 57°09' W 002°05'0 0.0
2014-Nov-19 09:30N 57°09' W 002°05'0 0.0
2014-Nov-19 08:33N 57°09' W 002°05'0 0.0
2014-Nov-19 07:33N 57°09' W 002°05'0 0.0
2014-Nov-19 06:33N 57°09' W 002°05'0 0.0
2014-Nov-19 05:33N 57°09' W 002°05'0 0.0
2014-Nov-19 04:33N 57°09' W 002°05'0 0.0
2014-Nov-19 03:33N 57°09' W 002°05'0 0.0
2014-Nov-19 02:33N 57°09' W 002°05'0 0.0
2014-Nov-19 01:33N 57°09' W 002°05'0 0.0
2014-Nov-19 00:33N 57°09' W 002°05'0 0.0
2014-Nov-18 23:33N 57°09' W 002°05'0 0.0
2014-Nov-18 22:33N 57°09' W 002°05'0 0.0
2014-Nov-18 21:33N 57°09' W 002°05'0 0.0
2014-Nov-18 20:33N 57°09' W 002°05'0 0.0
2014-Nov-18 19:33N 57°09' W 002°05'0 0.0
2014-Nov-18 18:33N 57°09' W 002°05'0 0.0
2014-Nov-18 17:33N 57°09' W 002°05'0 0.0
2014-Nov-18 16:33N 57°09' W 002°05'0 0.0
2014-Nov-18 15:30N 57°09' W 002°05'0 0.0
2014-Nov-18 14:33N 57°09' W 002°05'0 0.0
2014-Nov-18 13:33N 57°09' W 002°05'0 0.0
2014-Nov-18 12:33N 57°09' W 002°05'0 0.0
2014-Nov-18 11:33N 57°09' W 002°05'0 0.0
2014-Nov-18 10:33N 57°09' W 002°05'0 0.0
2014-Nov-18 09:33N 57°09' W 002°05'0 0.0
2014-Nov-18 08:33N 57°09' W 002°05'10 8.5
2014-Nov-18 07:25N 57°14' W 001°50'1113.3
2014-Nov-18 06:33N 57°21' W 001°34'1312.9
2014-Nov-18 05:33N 57°29' W 001°15'1110.6
2014-Nov-18 04:33N 57°39' W 001°18'1312.7
2014-Nov-18 03:33N 57°50' W 001°30'6512.0
2014-Nov-17 22:06N 58°47' W 002°30'811.6
2014-Nov-17 21:26N 58°55' W 002°37'910.8
2014-Nov-17 20:33N 59°01' W 002°51'4 4.0
2014-Nov-17 19:31N 58°60' W 002°58'0 0.0
2014-Nov-17 18:31N 58°60' W 002°58'0 0.0
2014-Nov-17 17:31N 58°60' W 002°58'0 0.0
2014-Nov-17 16:31N 58°60' W 002°58'0 0.0
2014-Nov-17 14:31N 58°60' W 002°58'0 0.0
2014-Nov-17 13:31N 58°60' W 002°58'0 0.0
2014-Nov-17 12:31N 58°60' W 002°58'0 0.0
2014-Nov-17 11:31N 58°60' W 002°58'0 0.0
2014-Nov-17 10:31N 58°60' W 002°58'0 0.0
2014-Nov-17 09:31N 58°60' W 002°58'0 0.0
2014-Nov-17 08:31N 58°60' W 002°58'2 2.0
2014-Nov-17 07:33N 59°01' W 002°56'1010.2
2014-Nov-17 06:33N 59°09' W 002°43'  

Dump ship's entire track history